RYR798V EDDG-LEPA

Flight info

Callsign RYR798V
Flight time 1h 56m
Altitude 24000
Route DOMEG1E DOMEG N853 QATJA Y841 NVO/N0444F360 Y841 KENUM DCT GESLO/N0443F370 N852 SUTAL DCT GTQ DCT POGOL DCT LASAT DCT MOROK DCT GILIR DCT GEVEA DCT INCUS DCT BALSI DCT RETNO DCT TUPOX DCT MTG DCT DIVKO DCT VATIR DCT PIVUS DCT BODEQ DCT VERSO L129 LUNIK
Aircraft A320/M-SDE3FGHIRWY/LB1

Departure

Time 2026-04-22 13:50
Airport Münster Osnabrück Airport (EDDG)

Arrival

Time 2026-04-22 15:46
Airport Palma de Mallorca Airport (LEPA)
Time Latitude Longitude Altitude Speed Heading
2026-04-22 13:17 52.13132 7.69210 168 ft 0 kts 197°
2026-04-22 13:44 52.13123 7.69190 167 ft 3 kts 248°
2026-04-22 13:44 52.13146 7.69134 167 ft 8 kts 310°
2026-04-22 13:45 52.13159 7.69044 167 ft 9 kts 263°
2026-04-22 13:45 52.13174 7.68954 167 ft 9 kts 319°
2026-04-22 13:45 52.13235 7.68912 167 ft 11 kts 341°
2026-04-22 13:45 52.13316 7.68868 167 ft 13 kts 341°
2026-04-22 13:46 52.13350 7.68776 167 ft 10 kts 262°
2026-04-22 13:46 52.13318 7.68617 168 ft 17 kts 251°
2026-04-22 13:46 52.13278 7.68432 168 ft 17 kts 251°
2026-04-22 13:46 52.13239 7.68243 168 ft 18 kts 251°
2026-04-22 13:47 52.13199 7.68052 168 ft 17 kts 251°
2026-04-22 13:47 52.13168 7.67906 167 ft 15 kts 251°
2026-04-22 13:47 52.13127 7.67711 167 ft 19 kts 251°
2026-04-22 13:47 52.13083 7.67509 167 ft 19 kts 250°
2026-04-22 13:48 52.13039 7.67307 167 ft 18 kts 250°
2026-04-22 13:48 52.13034 7.67162 167 ft 13 kts 291°
2026-04-22 13:48 52.13094 7.67060 167 ft 13 kts 342°
2026-04-22 13:48 52.13160 7.67045 166 ft 8 kts 32°
2026-04-22 13:49 52.13171 7.67096 166 ft 0 kts 71°
2026-04-22 13:49 52.13220 7.67328 165 ft 60 kts 71°
2026-04-22 13:49 52.13433 7.68335 169 ft 125 kts 71°
2026-04-22 13:50 52.13759 7.69893 461 ft 151 kts 70°
2026-04-22 13:50 52.14091 7.71489 1188 ft 150 kts 69°
2026-04-22 13:50 52.14439 7.73133 1753 ft 161 kts 69°
2026-04-22 13:50 52.14831 7.74982 2123 ft 184 kts 70°
2026-04-22 13:51 52.15274 7.77069 2467 ft 206 kts 70°
2026-04-22 13:51 52.15757 7.79402 2944 ft 226 kts 74°
2026-04-22 13:51 52.15713 7.81959 3741 ft 234 kts 111°
2026-04-22 13:51 52.14651 7.84081 4346 ft 257 kts 146°
2026-04-22 13:52 52.12983 7.85252 5188 ft 266 kts 162°
2026-04-22 13:52 52.11154 7.85817 6059 ft 273 kts 179°
2026-04-22 13:52 52.09258 7.85379 6945 ft 279 kts 193°
2026-04-22 13:52 52.07407 7.84343 7781 ft 284 kts 203°
2026-04-22 13:53 52.05594 7.82985 8609 ft 289 kts 202°
2026-04-22 13:53 52.03737 7.81669 9433 ft 293 kts 202°
2026-04-22 13:53 52.01841 7.80358 10264 ft 298 kts 201°
2026-04-22 13:53 51.99922 7.79036 10998 ft 302 kts 201°
2026-04-22 13:54 51.97931 7.77662 11387 ft 322 kts 201°
2026-04-22 13:54 51.95801 7.76181 11658 ft 343 kts 201°
2026-04-22 13:54 51.93577 7.74623 12238 ft 353 kts 202°
2026-04-22 13:54 51.91308 7.73023 12951 ft 358 kts 202°
2026-04-22 13:55 51.89012 7.71401 13667 ft 363 kts 202°
2026-04-22 13:55 51.86683 7.69760 14353 ft 367 kts 202°
2026-04-22 13:55 51.84328 7.68098 14978 ft 372 kts 202°
2026-04-22 13:55 51.81939 7.66415 15616 ft 376 kts 202°
2026-04-22 13:56 51.79528 7.64721 16248 ft 380 kts 202°
2026-04-22 13:56 51.77094 7.63014 16871 ft 384 kts 201°
2026-04-22 13:56 51.74628 7.61290 17489 ft 388 kts 201°
2026-04-22 13:56 51.72172 7.59577 18093 ft 392 kts 201°
2026-04-22 13:57 51.69575 7.58019 18689 ft 395 kts 195°
2026-04-22 13:57 51.66935 7.56692 19213 ft 399 kts 195°
2026-04-22 13:57 51.64311 7.55378 19738 ft 402 kts 195°
2026-04-22 13:57 51.61589 7.54012 20280 ft 406 kts 195°
2026-04-22 13:58 51.58908 7.52670 20804 ft 410 kts 195°
2026-04-22 13:58 51.56175 7.51301 21354 ft 413 kts 195°
2026-04-22 13:58 51.53420 7.49921 21869 ft 416 kts 195°
2026-04-22 13:58 51.50644 7.48535 22402 ft 420 kts 195°
2026-04-22 13:59 51.47841 7.47135 22929 ft 423 kts 195°
2026-04-22 13:59 51.45018 7.45721 23436 ft 427 kts 195°
2026-04-22 13:59 51.42170 7.44286 23923 ft 431 kts 197°
2026-04-22 13:59 51.39392 7.42383 24335 ft 436 kts 207°
2026-04-22 14:00 51.36837 7.39741 24741 ft 439 kts 218°
2026-04-22 14:00 51.34590 7.36423 25156 ft 442 kts 229°
2026-04-22 14:00 51.32690 7.32556 25579 ft 443 kts 234°
2026-04-22 14:00 51.30859 7.28582 25993 ft 445 kts 234°
2026-04-22 14:01 51.29014 7.24602 26398 ft 446 kts 234°
2026-04-22 14:01 51.27158 7.20619 26796 ft 448 kts 234°
2026-04-22 14:01 51.25288 7.16623 27189 ft 450 kts 234°
2026-04-22 14:01 51.23407 7.12616 27551 ft 452 kts 233°
2026-04-22 14:02 51.21519 7.08602 27928 ft 453 kts 234°
2026-04-22 14:02 51.19628 7.04575 28295 ft 455 kts 234°
2026-04-22 14:02 51.17727 7.00517 28658 ft 457 kts 234°
2026-04-22 14:02 51.15819 6.96455 29019 ft 459 kts 234°
2026-04-22 14:03 51.13902 6.92383 29351 ft 461 kts 234°
2026-04-22 14:03 51.11858 6.88446 29702 ft 463 kts 226°
2026-04-22 14:03 51.09465 6.85019 30039 ft 464 kts 217°
2026-04-22 14:03 51.06767 6.82197 30350 ft 465 kts 208°
2026-04-22 14:04 51.03857 6.79925 30588 ft 467 kts 205°
2026-04-22 14:04 51.00915 6.77716 30824 ft 469 kts 205°
2026-04-22 14:04 50.97965 6.75494 31055 ft 470 kts 205°
2026-04-22 14:04 50.95006 6.73257 31283 ft 472 kts 205°
2026-04-22 14:05 50.92033 6.71011 31490 ft 474 kts 205°
2026-04-22 14:05 50.89056 6.68748 31711 ft 475 kts 207°
2026-04-22 14:05 50.83756 6.62631 32289 ft 472 kts 227°
2026-04-22 14:06 50.81658 6.58671 32581 ft 469 kts 237°
2026-04-22 14:06 50.79991 6.54268 32854 ft 465 kts 246°
2026-04-22 14:06 50.78741 6.49588 33188 ft 461 kts 251°
2026-04-22 14:06 50.77562 6.44883 33514 ft 460 kts 251°
2026-04-22 14:07 50.76380 6.40194 33836 ft 459 kts 251°
2026-04-22 14:07 50.75136 6.35558 34160 ft 460 kts 246°
2026-04-22 14:07 50.73452 6.31260 34440 ft 463 kts 235°
2026-04-22 14:07 50.71295 6.27478 34688 ft 466 kts 224°
2026-04-22 14:08 50.68731 6.24331 34907 ft 469 kts 214°
2026-04-22 14:08 50.65836 6.21949 35124 ft 471 kts 203°
2026-04-22 14:08 50.62705 6.20415 35334 ft 473 kts 194°
2026-04-22 14:08 50.59501 6.19251 35542 ft 473 kts 194°
2026-04-22 14:09 50.56295 6.18084 35759 ft 473 kts 194°
2026-04-22 14:09 50.53086 6.16915 35975 ft 472 kts 194°
2026-04-22 14:09 50.49876 6.15742 36179 ft 472 kts 194°
2026-04-22 14:09 50.46673 6.14570 36382 ft 472 kts 194°
2026-04-22 14:10 50.43473 6.13398 36563 ft 472 kts 194°
2026-04-22 14:10 50.40276 6.12228 36757 ft 472 kts 194°
2026-04-22 14:10 50.37077 6.11056 36936 ft 472 kts 194°
2026-04-22 14:10 50.33880 6.09886 37112 ft 472 kts 194°
2026-04-22 14:11 50.30680 6.08723 37268 ft 472 kts 194°
2026-04-22 14:11 50.24325 6.06421 37287 ft 471 kts 194°
2026-04-22 14:12 50.17917 6.04109 37287 ft 472 kts 194°
2026-04-22 14:12 50.11482 6.02029 37284 ft 473 kts 186°
2026-04-22 14:13 50.04938 6.02568 37278 ft 473 kts 166°
2026-04-22 14:13 49.98712 6.05815 37267 ft 473 kts 159°
2026-04-22 14:14 49.92537 6.09346 37267 ft 473 kts 159°
2026-04-22 14:14 49.86349 6.12860 37264 ft 474 kts 159°
2026-04-22 14:15 49.80246 6.16718 37263 ft 474 kts 155°
2026-04-22 14:15 49.74241 6.20939 37264 ft 474 kts 154°
2026-04-22 14:16 49.68225 6.25161 37263 ft 475 kts 155°
2026-04-22 14:16 49.62168 6.29258 37267 ft 475 kts 156°
2026-04-22 14:17 49.56066 6.33192 37279 ft 475 kts 157°
2026-04-22 14:17 49.49945 6.37072 37268 ft 476 kts 157°
2026-04-22 14:18 49.43839 6.40997 37268 ft 476 kts 156°
2026-04-22 14:18 49.37781 6.45126 37267 ft 477 kts 155°
2026-04-22 14:19 49.31759 6.49311 37245 ft 477 kts 155°
2026-04-22 14:19 49.25676 6.53475 37250 ft 478 kts 155°
2026-04-22 14:20 49.16527 6.59627 37266 ft 478 kts 156°
2026-04-22 14:20 49.10431 6.63714 37284 ft 479 kts 156°
2026-04-22 14:21 49.01243 6.69727 37266 ft 480 kts 162°
2026-04-22 14:22 48.94700 6.71443 37267 ft 478 kts 181°
2026-04-22 14:22 48.91380 6.71339 37252 ft 477 kts 183°
2026-04-22 14:23 48.81410 6.70941 37241 ft 478 kts 183°
2026-04-22 14:23 48.74812 6.70694 37247 ft 477 kts 183°
2026-04-22 14:24 48.68168 6.70441 37238 ft 477 kts 183°
2026-04-22 14:24 48.61530 6.70181 37231 ft 477 kts 183°
2026-04-22 14:25 48.54885 6.69923 37237 ft 478 kts 183°
2026-04-22 14:25 48.49313 6.69717 37229 ft 478 kts 183°
2026-04-22 14:26 48.42709 6.69464 37222 ft 478 kts 183°
2026-04-22 14:26 48.36061 6.69195 37219 ft 478 kts 183°
2026-04-22 14:27 48.29409 6.68935 37221 ft 478 kts 183°
2026-04-22 14:27 48.22759 6.68689 37206 ft 478 kts 184°
2026-04-22 14:28 48.16106 6.68444 37200 ft 478 kts 184°
2026-04-22 14:28 48.09451 6.68183 37195 ft 478 kts 184°
2026-04-22 14:29 48.02796 6.67918 37176 ft 478 kts 184°
2026-04-22 14:29 47.96137 6.67667 37187 ft 479 kts 184°
2026-04-22 14:30 47.89474 6.67418 37187 ft 479 kts 184°
2026-04-22 14:30 47.82811 6.67175 37182 ft 479 kts 184°
2026-04-22 14:31 47.76144 6.66932 37169 ft 479 kts 185°
2026-04-22 14:31 47.69481 6.66663 37173 ft 479 kts 185°
2026-04-22 14:32 47.62807 6.66406 37170 ft 479 kts 185°
2026-04-22 14:32 47.56169 6.66172 37151 ft 480 kts 185°
2026-04-22 14:33 47.49480 6.65936 37153 ft 481 kts 185°
2026-04-22 14:33 47.42867 6.65055 37155 ft 473 kts 199°
2026-04-22 14:34 47.36872 6.61500 37138 ft 459 kts 218°
2026-04-22 14:34 47.31908 6.55817 37128 ft 450 kts 227°
2026-04-22 14:35 47.27143 6.49813 37129 ft 451 kts 226°
2026-04-22 14:35 47.22355 6.43828 37130 ft 452 kts 226°
2026-04-22 14:36 47.17557 6.37864 37125 ft 452 kts 226°
2026-04-22 14:36 47.12756 6.31909 37131 ft 451 kts 227°
2026-04-22 14:37 47.07710 6.26359 37136 ft 461 kts 214°
2026-04-22 14:37 47.04754 6.24462 37125 ft 469 kts 203°
2026-04-22 14:37 47.01562 6.23331 37119 ft 476 kts 193°
2026-04-22 14:38 46.94942 6.22419 37104 ft 478 kts 190°
2026-04-22 14:38 46.88297 6.21534 37111 ft 479 kts 190°
2026-04-22 14:39 46.81699 6.20640 37121 ft 479 kts 190°
2026-04-22 14:39 46.75056 6.19746 37115 ft 479 kts 190°
2026-04-22 14:40 46.65098 6.18446 37129 ft 479 kts 190°
2026-04-22 14:40 46.58469 6.17565 37129 ft 478 kts 191°
2026-04-22 14:41 46.51838 6.16693 37139 ft 478 kts 190°
2026-04-22 14:41 46.45212 6.15824 37133 ft 478 kts 190°
2026-04-22 14:42 46.38584 6.14949 37099 ft 478 kts 191°
2026-04-22 14:42 46.31955 6.14091 37110 ft 478 kts 191°
2026-04-22 14:43 46.25332 6.13230 37115 ft 477 kts 191°
2026-04-22 14:43 46.18771 6.11996 37102 ft 474 kts 194°
2026-04-22 14:44 46.12277 6.10405 37115 ft 473 kts 195°
2026-04-22 14:44 46.05787 6.08839 37118 ft 473 kts 194°
2026-04-22 14:45 45.99278 6.07398 37105 ft 473 kts 194°
2026-04-22 14:45 45.92771 6.06003 37115 ft 472 kts 194°
2026-04-22 14:46 45.86282 6.04588 37119 ft 472 kts 194°
2026-04-22 14:46 45.79791 6.03146 37102 ft 471 kts 194°
2026-04-22 14:47 45.73319 6.01701 37114 ft 471 kts 194°
2026-04-22 14:47 45.66847 6.00268 37089 ft 470 kts 194°
2026-04-22 14:48 45.60381 5.98844 37069 ft 470 kts 194°
2026-04-22 14:48 45.53927 5.97427 37080 ft 469 kts 194°
2026-04-22 14:49 45.47473 5.96023 37080 ft 469 kts 195°
2026-04-22 14:49 45.41088 5.94244 37065 ft 466 kts 198°
2026-04-22 14:50 45.34816 5.92147 37093 ft 466 kts 198°
2026-04-22 14:50 45.28513 5.90058 37096 ft 465 kts 198°
2026-04-22 14:51 45.22189 5.88076 37086 ft 466 kts 197°
2026-04-22 14:51 45.15852 5.86151 37087 ft 466 kts 197°
2026-04-22 14:52 45.09522 5.84208 37091 ft 465 kts 198°
2026-04-22 14:52 45.03201 5.82247 37069 ft 465 kts 198°
2026-04-22 14:53 44.96879 5.80297 37078 ft 465 kts 197°
2026-04-22 14:53 44.90555 5.78350 37080 ft 465 kts 197°
2026-04-22 14:54 44.84232 5.76403 37060 ft 465 kts 197°
2026-04-22 14:54 44.77909 5.74459 37073 ft 465 kts 197°
2026-04-22 14:55 44.71581 5.72535 37078 ft 465 kts 197°
2026-04-22 14:55 44.65250 5.70617 37063 ft 465 kts 197°
2026-04-22 14:56 44.58924 5.68694 37073 ft 466 kts 197°
2026-04-22 14:56 44.52578 5.66761 37080 ft 467 kts 197°
2026-04-22 14:57 44.46227 5.64842 37076 ft 467 kts 197°
2026-04-22 14:57 44.39868 5.62929 37091 ft 468 kts 197°
2026-04-22 14:58 44.33779 5.60045 37092 ft 461 kts 207°
2026-04-22 14:58 44.27808 5.56756 37082 ft 461 kts 206°
2026-04-22 14:59 44.21831 5.53488 37092 ft 462 kts 206°
2026-04-22 14:59 44.15846 5.50226 37102 ft 462 kts 206°
2026-04-22 15:00 44.09851 5.46971 37106 ft 462 kts 206°
2026-04-22 15:00 44.03858 5.43715 37103 ft 462 kts 206°
2026-04-22 15:01 43.97866 5.40462 37109 ft 462 kts 206°
2026-04-22 15:01 43.91871 5.37212 37114 ft 462 kts 206°
2026-04-22 15:02 43.85879 5.33982 37103 ft 462 kts 206°
2026-04-22 15:02 43.79878 5.30749 37087 ft 463 kts 206°
2026-04-22 15:03 43.73875 5.27523 37103 ft 463 kts 206°
2026-04-22 15:03 43.67862 5.24293 37096 ft 463 kts 206°
2026-04-22 15:04 43.61857 5.21065 37096 ft 463 kts 206°
2026-04-22 15:04 43.55842 5.17848 37079 ft 464 kts 206°
2026-04-22 15:05 43.49823 5.14649 37069 ft 464 kts 206°
2026-04-22 15:05 43.43802 5.11449 37077 ft 464 kts 206°
2026-04-22 15:06 43.37916 5.07928 37081 ft 457 kts 216°
2026-04-22 15:06 43.33560 5.03901 37082 ft 453 kts 220°
2026-04-22 15:07 43.28362 4.98986 37075 ft 454 kts 219°
2026-04-22 15:07 43.23151 4.94098 37066 ft 454 kts 219°
2026-04-22 15:08 43.17939 4.89222 37087 ft 454 kts 219°
2026-04-22 15:08 43.12719 4.84338 37101 ft 454 kts 219°
2026-04-22 15:09 43.07500 4.79465 37093 ft 454 kts 219°
2026-04-22 15:09 43.02066 4.74983 37101 ft 458 kts 214°
2026-04-22 15:10 42.96499 4.70766 37104 ft 458 kts 214°
2026-04-22 15:10 42.90925 4.66557 37094 ft 458 kts 214°
2026-04-22 15:11 42.85354 4.62348 37095 ft 458 kts 214°
2026-04-22 15:11 42.79777 4.58146 37098 ft 458 kts 214°
2026-04-22 15:12 42.74204 4.53953 37096 ft 457 kts 213°
2026-04-22 15:12 42.68643 4.49775 37100 ft 456 kts 213°
2026-04-22 15:13 42.63087 4.45611 37104 ft 456 kts 213°
2026-04-22 15:13 42.57531 4.41455 37098 ft 456 kts 213°
2026-04-22 15:14 42.51976 4.37313 37090 ft 455 kts 213°
2026-04-22 15:14 42.46421 4.33173 37088 ft 456 kts 213°
2026-04-22 15:15 42.40860 4.29034 37088 ft 456 kts 213°
2026-04-22 15:15 42.35294 4.24911 37083 ft 457 kts 213°
2026-04-22 15:16 42.29717 4.20785 37076 ft 457 kts 213°
2026-04-22 15:16 42.24137 4.16658 37064 ft 457 kts 213°
2026-04-22 15:17 42.18565 4.12545 37087 ft 457 kts 213°
2026-04-22 15:17 42.12983 4.08445 37083 ft 456 kts 213°
2026-04-22 15:18 42.07406 4.04360 37075 ft 456 kts 213°
2026-04-22 15:18 42.01834 4.00278 37066 ft 456 kts 213°
2026-04-22 15:19 41.96262 3.96206 37059 ft 456 kts 213°
2026-04-22 15:19 41.90366 3.92963 37052 ft 464 kts 197°
2026-04-22 15:20 41.83985 3.91421 37058 ft 466 kts 193°
2026-04-22 15:20 41.77588 3.89949 37059 ft 466 kts 193°
2026-04-22 15:21 41.71194 3.88480 37060 ft 466 kts 193°
2026-04-22 15:21 41.64792 3.87013 37052 ft 467 kts 193°
2026-04-22 15:22 41.58393 3.85551 37055 ft 467 kts 193°
2026-04-22 15:22 41.51993 3.84076 37058 ft 467 kts 193°
2026-04-22 15:23 41.45587 3.82601 37048 ft 467 kts 193°
2026-04-22 15:23 41.39178 3.81150 37059 ft 467 kts 193°
2026-04-22 15:24 41.32783 3.79697 37053 ft 466 kts 193°
2026-04-22 15:24 41.26403 3.78235 37056 ft 465 kts 193°
2026-04-22 15:25 41.20040 3.76783 36771 ft 462 kts 193°
2026-04-22 15:25 41.16914 3.76066 36062 ft 462 kts 195°
2026-04-22 15:25 41.13834 3.74946 35336 ft 457 kts 204°
2026-04-22 15:26 41.10870 3.73415 34580 ft 457 kts 205°
2026-04-22 15:26 41.07903 3.71878 33804 ft 459 kts 205°
2026-04-22 15:26 41.04923 3.70347 32992 ft 459 kts 205°
2026-04-22 15:26 41.01966 3.68827 32422 ft 453 kts 205°
2026-04-22 15:27 40.99043 3.67329 31874 ft 448 kts 205°
2026-04-22 15:27 40.96154 3.65847 31322 ft 443 kts 205°
2026-04-22 15:27 40.93297 3.64380 30800 ft 438 kts 205°
2026-04-22 15:27 40.90468 3.62930 30284 ft 433 kts 205°
2026-04-22 15:28 40.87672 3.61499 29731 ft 429 kts 205°
2026-04-22 15:28 40.84903 3.60084 29143 ft 424 kts 205°
2026-04-22 15:28 40.82165 3.58682 28572 ft 420 kts 205°
2026-04-22 15:28 40.79451 3.57293 28013 ft 416 kts 205°
2026-04-22 15:29 40.76761 3.55916 27463 ft 413 kts 205°
2026-04-22 15:29 40.74097 3.54556 26922 ft 409 kts 205°
2026-04-22 15:29 40.71450 3.53209 26398 ft 406 kts 205°
2026-04-22 15:30 40.66204 3.50532 25203 ft 404 kts 205°
2026-04-22 15:30 40.63589 3.49197 24677 ft 401 kts 205°
2026-04-22 15:30 40.60996 3.47879 24208 ft 398 kts 205°
2026-04-22 15:30 40.58426 3.46574 23742 ft 394 kts 205°
2026-04-22 15:31 40.55877 3.45281 23227 ft 391 kts 205°
2026-04-22 15:31 40.53345 3.44001 22687 ft 389 kts 205°
2026-04-22 15:31 40.50829 3.42732 22159 ft 386 kts 205°
2026-04-22 15:31 40.48329 3.41469 21637 ft 384 kts 205°
2026-04-22 15:32 40.45828 3.40265 21126 ft 383 kts 200°
2026-04-22 15:32 40.43213 3.39551 20624 ft 385 kts 190°
2026-04-22 15:32 40.40529 3.39451 20117 ft 387 kts 181°
2026-04-22 15:32 40.37850 3.39570 19628 ft 383 kts 186°
2026-04-22 15:33 40.35274 3.38959 19148 ft 373 kts 202°
2026-04-22 15:33 40.32843 3.37837 18682 ft 369 kts 204°
2026-04-22 15:33 40.30430 3.36702 18200 ft 367 kts 204°
2026-04-22 15:33 40.28035 3.35567 17668 ft 365 kts 204°
2026-04-22 15:34 40.25653 3.34435 17146 ft 363 kts 204°
2026-04-22 15:34 40.23280 3.33309 16629 ft 362 kts 204°
2026-04-22 15:34 40.20916 3.32190 16121 ft 360 kts 204°
2026-04-22 15:34 40.18562 3.31077 15615 ft 359 kts 204°
2026-04-22 15:35 40.17006 3.30342 15287 ft 359 kts 204°
2026-04-22 15:35 40.13874 3.28863 14633 ft 357 kts 204°
2026-04-22 15:35 40.11540 3.27760 14159 ft 356 kts 204°
2026-04-22 15:35 40.09213 3.26663 13672 ft 355 kts 204°
2026-04-22 15:36 40.06891 3.25573 13145 ft 354 kts 204°
2026-04-22 15:36 40.04579 3.24492 12629 ft 352 kts 203°
2026-04-22 15:36 40.02277 3.23419 12122 ft 350 kts 203°
2026-04-22 15:36 39.99989 3.22353 11623 ft 348 kts 203°
2026-04-22 15:37 39.97717 3.21290 11130 ft 346 kts 203°
2026-04-22 15:37 39.95460 3.20234 10642 ft 344 kts 202°
2026-04-22 15:37 39.93216 3.19183 10165 ft 342 kts 202°
2026-04-22 15:37 39.90981 3.18137 9691 ft 339 kts 202°
2026-04-22 15:38 39.88781 3.17107 9305 ft 333 kts 202°
2026-04-22 15:38 39.84486 3.15105 8547 ft 323 kts 202°
2026-04-22 15:38 39.82394 3.14130 8131 ft 313 kts 202°
2026-04-22 15:39 39.80395 3.13202 7716 ft 298 kts 202°
2026-04-22 15:39 39.78488 3.12317 7308 ft 285 kts 202°
2026-04-22 15:39 39.76657 3.11468 6902 ft 274 kts 202°
2026-04-22 15:39 39.74893 3.10649 6498 ft 264 kts 201°
2026-04-22 15:40 39.73195 3.09861 6075 ft 254 kts 201°
2026-04-22 15:40 39.71585 3.08990 5577 ft 247 kts 214°
2026-04-22 15:40 39.70324 3.07549 5093 ft 239 kts 234°
2026-04-22 15:40 39.69436 3.05720 4615 ft 240 kts 240°
2026-04-22 15:41 39.68580 3.03878 4203 ft 237 kts 240°
2026-04-22 15:41 39.67724 3.02054 3813 ft 236 kts 240°
2026-04-22 15:41 39.66874 3.00248 3526 ft 233 kts 239°
2026-04-22 15:41 39.66038 2.98477 3357 ft 226 kts 239°
2026-04-22 15:42 39.65234 2.96765 3226 ft 218 kts 239°
2026-04-22 15:42 39.64461 2.95119 3122 ft 209 kts 239°
2026-04-22 15:42 39.63726 2.93552 3018 ft 199 kts 239°
2026-04-22 15:42 39.63025 2.92060 2771 ft 195 kts 240°
2026-04-22 15:43 39.62328 2.90577 2526 ft 190 kts 239°
2026-04-22 15:43 39.61649 2.89133 2276 ft 186 kts 239°
2026-04-22 15:43 39.60981 2.87712 2029 ft 183 kts 239°
2026-04-22 15:43 39.60325 2.86319 1794 ft 179 kts 239°
2026-04-22 15:44 39.59684 2.84957 1558 ft 175 kts 239°
2026-04-22 15:44 39.59072 2.83658 1352 ft 160 kts 239°
2026-04-22 15:44 39.58517 2.82480 1143 ft 148 kts 238°
2026-04-22 15:44 39.57990 2.81361 966 ft 144 kts 238°
2026-04-22 15:45 39.57477 2.80273 781 ft 139 kts 238°
2026-04-22 15:45 39.56979 2.79219 600 ft 135 kts 238°
2026-04-22 15:45 39.56490 2.78181 414 ft 136 kts 238°
2026-04-22 15:45 39.56000 2.77143 247 ft 134 kts 239°
2026-04-22 15:46 39.55522 2.76124 65 ft 131 kts 239°
2026-04-22 15:46 39.55092 2.75212 38 ft 92 kts 238°
2026-04-22 15:46 39.54891 2.74786 38 ft 36 kts 239°
2026-04-22 15:46 39.54821 2.74551 36 ft 26 kts 256°
2026-04-22 15:47 39.54804 2.74339 38 ft 19 kts 270°
2026-04-22 15:47 39.54804 2.74216 38 ft 3 kts 272°
2026-04-22 15:47 39.54804 2.74211 38 ft 0 kts 273°
2026-04-22 15:47 39.54804 2.74206 38 ft 2 kts 270°
2026-04-22 15:48 39.54800 2.74178 38 ft 5 kts 255°
2026-04-22 15:48 39.54784 2.74124 38 ft 8 kts 246°
2026-04-22 15:48 39.54754 2.74053 38 ft 8 kts 239°
2026-04-22 15:48 39.54734 2.73995 38 ft 8 kts 261°
2026-04-22 15:49 39.54774 2.73948 38 ft 9 kts
2026-04-22 15:49 39.54819 2.73991 38 ft 8 kts 33°
2026-04-22 15:49 39.54870 2.73981 38 ft 10 kts 332°
2026-04-22 15:49 39.54935 2.73931 38 ft 11 kts 329°
2026-04-22 15:50 39.54975 2.73900 38 ft 10 kts 329°
2026-04-22 15:50 39.55031 2.73857 38 ft 10 kts 329°
2026-04-22 15:50 39.55108 2.73796 38 ft 13 kts 328°
2026-04-22 15:50 39.55177 2.73729 38 ft 11 kts 295°
2026-04-22 15:51 39.55150 2.73634 38 ft 13 kts 238°
2026-04-22 15:51 39.55100 2.73526 38 ft 15 kts 239°
2026-04-22 15:51 39.55052 2.73432 38 ft 8 kts 217°
2026-04-22 15:51 39.55010 2.73437 38 ft 3 kts 164°
2026-04-22 15:52 39.54999 2.73441 38 ft 1 kts 164°
2026-04-22 15:52 39.54998 2.73441 38 ft 0 kts 164°